Location: Santa Barbara
(34.4500°N, 119.7700°W)
Time: 23:37:25
(UTC-07:00)

Cosmos 1626 Rocket - Visible Passes

Search period start: 02 August 2015 00:00
Search period end: 12 August 2015 00:00
Orbit: 603 x 633 km, 82.5° (Epoch: 02 August)

Date Brightness Start Highest point End Pass type
(mag) Time Alt. Az. Time Alt. Az. Time Alt. Az.
02 Aug 5.4 22:14:21 10° NNE 22:16:25 20° NE 22:16:25 20° NE visible
02 Aug 6.2 23:52:17 10° NW 23:53:33 16° NW 23:53:33 16° NW visible
03 Aug 4.9 22:30:48 10° N 22:33:25 32° NNE 22:33:25 32° NNE visible
04 Aug 4.8 22:47:39 10° N 22:50:26 39° N 22:50:26 39° N visible
05 Aug 5.6 21:28:48 10° NE 21:30:20 13° ENE 21:30:20 13° ENE visible
05 Aug 5.3 23:04:50 10° NNW 23:07:28 30° NW 23:07:28 30° NW visible
06 Aug 5.0 21:44:29 10° NNE 21:47:23 24° ENE 21:47:23 24° ENE visible
06 Aug 6.0 23:22:29 10° NW 23:24:31 19° WNW 23:24:31 19° WNW visible
07 Aug 4.2 22:00:57 10° N 22:04:28 44° NE 22:04:28 44° NE visible
07 Aug 6.5 23:41:29 10° WNW 23:41:36 10° WNW 23:41:36 10° WNW visible
08 Aug 3.9 22:17:49 10° N 22:21:34 64° NNW 22:21:34 64° NNW visible
09 Aug 5.4 20:58:53 10° NE 21:01:01 14° ENE 21:01:33 14° E visible
09 Aug 4.8 22:35:01 10° NNW 22:38:41 39° WNW 22:38:41 39° WNW visible
10 Aug 4.7 21:14:37 10° NNE 21:18:16 26° ENE 21:18:42 25° E visible
10 Aug 5.7 22:52:40 10° NW 22:55:51 21° W 22:55:51 21° W visible
11 Aug 3.7 21:31:07 10° N 21:35:23 50° E 21:35:53 48° ESE visible
11 Aug 6.4 23:11:47 10° WNW 23:12:51 11° W 23:13:02 10° W visible
